DLH010 VOTV-VOTV

Flight info

Callsign DLH010
Flight time 0h 20m
Altitude 12000
Route TD323 DCT RAMPU DCT MOREX DCT FORET DCT PARIT DCT CI32
Aircraft A20N/M-SDE2E3FGHIRWXY/LB1

Departure

Time 2026-04-22 18:51
Airport Thiruvananthapuram International Airport (VOTV)

Arrival

Time 2026-04-22 19:12
Airport Thiruvananthapuram International Airport (VOTV)
Time Latitude Longitude Altitude Speed Heading
2026-04-22 18:37 8.47777 76.91861 23 ft 0 kts 187°
2026-04-22 18:39 8.47783 76.91862 24 ft 2 kts 186°
2026-04-22 18:40 8.47799 76.91864 24 ft 2 kts 188°
2026-04-22 18:40 8.47815 76.91866 25 ft 2 kts 189°
2026-04-22 18:40 8.47832 76.91869 27 ft 2 kts 191°
2026-04-22 18:40 8.47840 76.91871 26 ft 0 kts 193°
2026-04-22 18:42 8.47834 76.91870 26 ft 3 kts 193°
2026-04-22 18:42 8.47816 76.91866 24 ft 0 kts 193°
2026-04-22 18:44 8.47814 76.91865 25 ft 2 kts 191°
2026-04-22 18:44 8.47790 76.91869 24 ft 4 kts 159°
2026-04-22 18:44 8.47773 76.91904 24 ft 8 kts 115°
2026-04-22 18:44 8.47743 76.91969 24 ft 12 kts 113°
2026-04-22 18:45 8.47728 76.92067 22 ft 16 kts 92°
2026-04-22 18:45 8.47720 76.92198 23 ft 21 kts 100°
2026-04-22 18:45 8.47700 76.92350 28 ft 23 kts 93°
2026-04-22 18:45 8.47671 76.92517 26 ft 26 kts 108°
2026-04-22 18:46 8.47659 76.92615 24 ft 11 kts 78°
2026-04-22 18:46 8.47668 76.92635 22 ft 0 kts 57°
2026-04-22 18:46 8.47650 76.92606 23 ft 7 kts 47°
2026-04-22 18:46 8.47604 76.92593 27 ft 6 kts 330°
2026-04-22 18:47 8.47566 76.92624 26 ft 0 kts 321°
2026-04-22 18:47 8.47584 76.92607 25 ft 7 kts 316°
2026-04-22 18:47 8.47627 76.92560 23 ft 11 kts 315°
2026-04-22 18:47 8.47668 76.92521 25 ft 0 kts 316°
2026-04-22 18:48 8.47672 76.92517 26 ft 3 kts 316°
2026-04-22 18:48 8.47697 76.92492 28 ft 7 kts 316°
2026-04-22 18:48 8.47714 76.92476 24 ft 0 kts 316°
2026-04-22 18:51 8.47716 76.92474 24 ft 2 kts 316°
2026-04-22 18:51 8.47912 76.92282 24 ft 90 kts 316°
2026-04-22 18:51 8.48571 76.91642 25 ft 169 kts 315°
2026-04-22 18:51 8.49480 76.90769 619 ft 191 kts 318°
2026-04-22 18:52 8.50619 76.89994 1330 ft 204 kts 332°
2026-04-22 18:52 8.51891 76.89368 2178 ft 198 kts 333°
2026-04-22 18:52 8.53117 76.88840 3302 ft 185 kts 337°
2026-04-22 18:52 8.54285 76.88353 4240 ft 181 kts 338°
2026-04-22 18:53 8.55495 76.87921 4440 ft 188 kts 343°
2026-04-22 18:53 8.56764 76.87755 4516 ft 178 kts 357°
2026-04-22 18:53 8.57942 76.87654 4507 ft 167 kts 352°
2026-04-22 18:53 8.59115 76.87483 4125 ft 177 kts 351°
2026-04-22 18:54 8.60387 76.87355 3637 ft 190 kts 359°
2026-04-22 18:54 8.61741 76.87497 3215 ft 205 kts
2026-04-22 18:54 8.63270 76.87715 2918 ft 234 kts
2026-04-22 18:54 8.64915 76.87815 2887 ft 237 kts
2026-04-22 18:55 8.66579 76.87798 3126 ft 241 kts 356°
2026-04-22 18:55 8.68129 76.87275 3787 ft 241 kts 327°
2026-04-22 18:55 8.69286 76.86082 4434 ft 242 kts 294°
2026-04-22 18:55 8.69587 76.84412 5053 ft 249 kts 269°
2026-04-22 18:56 8.69482 76.82666 4896 ft 245 kts 264°
2026-04-22 18:56 8.69304 76.81119 4945 ft 196 kts 263°
2026-04-22 18:56 8.69179 76.79775 5018 ft 203 kts 268°
2026-04-22 18:56 8.69045 76.78187 5032 ft 252 kts 251°
2026-04-22 18:57 8.67930 76.76786 5110 ft 266 kts 210°
2026-04-22 18:57 8.66143 76.76290 4420 ft 283 kts 175°
2026-04-22 18:57 8.64290 76.76994 3815 ft 288 kts 148°
2026-04-22 18:57 8.62534 76.77804 3745 ft 271 kts 164°
2026-04-22 18:58 8.60732 76.78113 3905 ft 258 kts 172°
2026-04-22 18:58 8.58921 76.78454 4326 ft 266 kts 167°
2026-04-22 18:58 8.57189 76.78953 4689 ft 249 kts 161°
2026-04-22 18:58 8.55666 76.79564 4969 ft 221 kts 155°
2026-04-22 18:59 8.54385 76.80256 5129 ft 198 kts 148°
2026-04-22 18:59 8.53338 76.80958 5399 ft 158 kts 153°
2026-04-22 18:59 8.52321 76.81361 5762 ft 163 kts 167°
2026-04-22 18:59 8.51202 76.81577 5886 ft 163 kts 168°
2026-04-22 19:00 8.50472 76.81760 6015 ft 164 kts 165°
2026-04-22 19:00 8.48969 76.82239 6089 ft 192 kts 164°
2026-04-22 19:00 8.47554 76.82629 5609 ft 217 kts 170°
2026-04-22 19:00 8.46062 76.82692 5381 ft 214 kts 187°
2026-04-22 19:01 8.44627 76.82378 5246 ft 206 kts 194°
2026-04-22 19:01 8.43721 76.82206 5312 ft 198 kts 186°
2026-04-22 19:01 8.41805 76.82414 5004 ft 212 kts 168°
2026-04-22 19:01 8.40829 76.82638 4603 ft 223 kts 167°
2026-04-22 19:02 8.39268 76.83025 3979 ft 239 kts 166°
2026-04-22 19:02 8.37622 76.83484 3412 ft 250 kts 160°
2026-04-22 19:02 8.36168 76.84409 3096 ft 248 kts 143°
2026-04-22 19:02 8.34726 76.85358 2773 ft 246 kts 151°
2026-04-22 19:03 8.33347 76.86253 2898 ft 225 kts 144°
2026-04-22 19:03 8.32190 76.87173 3092 ft 192 kts 139°
2026-04-22 19:03 8.31341 76.88011 3280 ft 162 kts 134°
2026-04-22 19:03 8.30470 76.88717 3466 ft 158 kts 148°
2026-04-22 19:04 8.29521 76.89291 3719 ft 159 kts 151°
2026-04-22 19:04 8.28550 76.89828 3989 ft 156 kts 148°
2026-04-22 19:04 8.28049 76.90778 4560 ft 161 kts 105°
2026-04-22 19:04 8.27871 76.91900 4739 ft 165 kts 96°
2026-04-22 19:05 8.27796 76.93055 4636 ft 162 kts 92°
2026-04-22 19:05 8.27800 76.94203 4356 ft 163 kts 88°
2026-04-22 19:05 8.27843 76.95348 3870 ft 167 kts 89°
2026-04-22 19:05 8.27776 76.96465 3816 ft 160 kts 95°
2026-04-22 19:06 8.27707 76.97592 3855 ft 161 kts 90°
2026-04-22 19:06 8.27797 76.98718 3865 ft 161 kts 81°
2026-04-22 19:06 8.28144 76.99780 3986 ft 161 kts 62°
2026-04-22 19:07 8.29267 77.01757 4317 ft 174 kts 57°
2026-04-22 19:07 8.30022 77.02823 4608 ft 192 kts 52°
2026-04-22 19:07 8.31063 77.03660 4878 ft 194 kts 26°
2026-04-22 19:07 8.32355 77.04060 5155 ft 195 kts
2026-04-22 19:08 8.33716 77.04180 4974 ft 197 kts 351°
2026-04-22 19:08 8.35038 77.03690 4251 ft 205 kts 335°
2026-04-22 19:08 8.36191 77.02916 3808 ft 196 kts 316°
2026-04-22 19:08 8.37154 77.02045 3745 ft 183 kts 318°
2026-04-22 19:09 8.38083 77.01183 3551 ft 171 kts 316°
2026-04-22 19:09 8.38929 77.00416 3372 ft 160 kts 315°
2026-04-22 19:09 8.39773 76.99680 3061 ft 160 kts 323°
2026-04-22 19:09 8.40643 76.99002 2738 ft 157 kts 320°
2026-04-22 19:10 8.41440 76.98237 2124 ft 162 kts 313°
2026-04-22 19:10 8.42221 76.97477 1772 ft 156 kts 324°
2026-04-22 19:10 8.43110 76.96836 1527 ft 154 kts 316°
2026-04-22 19:10 8.43917 76.96112 1251 ft 157 kts 318°
2026-04-22 19:11 8.44697 76.95392 811 ft 153 kts 317°
2026-04-22 19:11 8.45443 76.94672 847 ft 155 kts 315°
2026-04-22 19:11 8.46232 76.93909 383 ft 155 kts 316°
2026-04-22 19:11 8.46989 76.93184 119 ft 138 kts 316°
2026-04-22 19:12 8.47634 76.92564 27 ft 120 kts 316°
2026-04-22 19:12 8.48027 76.92182 25 ft 11 kts 313°
2026-04-22 19:12 8.48024 76.92185 25 ft 0 kts 312°
2026-04-22 19:12 8.48192 76.92011 26 ft 59 kts 316°
2026-04-22 19:13 8.48397 76.91856 22 ft 0 kts 20°
2026-04-22 19:13 8.48397 76.91857 22 ft 0 kts 33°